Moose Lake, MN

8:38 PM CDT on June 28, 2017 (GMT -0500)
Moose Lake-Carlton County

Weather History for KMZH - November, 2012

Change the Weather History Date:

Friday, November 2, 2012

  Actual Average Record
Temperature  
Mean Temperature 32 °F -  
Max Temperature 41 °F 44 °F 68 °F (1978)
Min Temperature 23 °F 27 °F -11 °F (1951)
Degree Days  
Heating Degree Days 33    
Moisture  
Dew Point 17 °F    
Average Humidity 58    
Maximum Humidity 80    
Minimum Humidity 29    
Precipitation  
Precipitation 0.00 in - - ()
Sea Level Pressure  
Sea Level Pressure 30.11 in    
Wind  
Wind Speed 4 mph (NNE)    
Max Wind Speed 7 mph    
Max Gust Speed -    
Visibility 10 miles    
Events      
Averages and records for this station are not official NWS values.
T = Trace of Precipitation, MM = Missing Value Source: NWS Daily Summary

Daily Weather History Graph

Daily Weather History Graph

Search for Another Location

Airport or City:

Trip Planner

Search our weather history database for the weather conditions in past years. The results will help you decide how hot, cold, wet, or windy it might be!

Date:

Astronomy

Nov. 02, 2012 Rise Set
Actual Time 7:54 AM CDT 5:54 PM CDT
Civil Twilight 7:23 AM CDT 6:25 PM CDT
Nautical Twilight 6:47 AM CDT 7:01 PM CDT
Astronomical Twilight 6:12 AM CDT 7:36 PM CDT
Moon 8:34 PM CDT (11/2) 11:23 AM CDT (11/2)
Length of Visible Light 11h 02m
Length of Day
9h 59m
Waning Gibbous, 87% of the Moon is Illuminated
Nov 2
Waning Gibbous
Nov 6
Last Quarter
Nov 13
New
Nov 20
First Quarter
Nov 28
Full

Hourly Weather History & Observations

Time (CDT) Temp. Windchill Dew Point Humidity Pressure Visibility Wind Dir Wind Speed Gust Speed Precip Events Conditions
12:10 AM 32.0 °F 25.6 °F 19.4 °F 60% 30.05 in 10.0 mi North 6.9 mph - N/A   Overcast
12:30 AM 32.0 °F 26.4 °F 19.4 °F 60% 30.05 in 10.0 mi North 5.8 mph - N/A   Mostly Cloudy
12:50 AM 30.2 °F 26.7 °F 19.4 °F 64% 30.05 in 10.0 mi North 3.5 mph - N/A   Scattered Clouds
1:10 AM 30.2 °F - 19.4 °F 64% 30.05 in 10.0 mi Calm Calm - N/A   Scattered Clouds
1:30 AM 28.4 °F - 19.4 °F 69% 30.05 in 10.0 mi Calm Calm - N/A   Clear
1:50 AM 28.4 °F 24.6 °F 19.4 °F 69% 30.06 in 10.0 mi NNW 3.5 mph - N/A   Clear
2:10 AM 28.4 °F 24.6 °F 19.4 °F 69% 30.07 in 10.0 mi NW 3.5 mph - N/A   Scattered Clouds
2:30 AM 28.4 °F 22.2 °F 19.4 °F 69% 30.07 in 10.0 mi NNW 5.8 mph - N/A   Scattered Clouds
2:50 AM 28.4 °F 22.2 °F 19.4 °F 69% 30.07 in 10.0 mi NNW 5.8 mph - N/A   Clear
3:10 AM 28.4 °F 21.2 °F 19.4 °F 69% 30.07 in 10.0 mi NNW 6.9 mph - N/A   Clear
3:30 AM 28.4 °F 23.3 °F 19.4 °F 69% 30.07 in 10.0 mi North 4.6 mph - N/A   Clear
3:50 AM 28.4 °F 23.3 °F 19.4 °F 69% 30.06 in 10.0 mi North 4.6 mph - N/A   Clear
4:10 AM 28.4 °F 23.3 °F 19.4 °F 69% 30.07 in 10.0 mi North 4.6 mph - N/A   Clear
4:30 AM 28.4 °F 21.2 °F 19.4 °F 69% 30.07 in 10.0 mi North 6.9 mph - N/A   Clear
4:50 AM 26.6 °F 19.1 °F 19.4 °F 74% 30.07 in 10.0 mi North 6.9 mph - N/A   Scattered Clouds
5:10 AM 26.6 °F 21.2 °F 17.6 °F 69% 30.07 in 10.0 mi North 4.6 mph - N/A   Scattered Clouds
5:30 AM 26.6 °F 21.2 °F 17.6 °F 69% 30.08 in 10.0 mi NNE 4.6 mph - N/A   Clear
5:50 AM 26.6 °F 21.2 °F 17.6 °F 69% 30.08 in 10.0 mi NNE 4.6 mph - N/A   Clear
6:10 AM 26.6 °F 21.2 °F 17.6 °F 69% 30.09 in 10.0 mi North 4.6 mph - N/A   Clear
6:30 AM 24.8 °F - 17.6 °F 74% 30.09 in 10.0 mi Calm Calm - N/A   Clear
6:50 AM 23.0 °F 15.8 °F 17.6 °F 80% 30.09 in 10.0 mi NE 5.8 mph - N/A   Clear
7:10 AM 24.8 °F 19.1 °F 17.6 °F 74% 30.09 in 10.0 mi NNE 4.6 mph - N/A   Clear
7:30 AM 23.0 °F 17.0 °F 17.6 °F 80% 30.11 in 10.0 mi North 4.6 mph - N/A   Clear
7:50 AM 23.0 °F 18.4 °F 17.6 °F 80% 30.11 in 10.0 mi North 3.5 mph - N/A   Clear
8:10 AM 23.0 °F - 17.6 °F 80% 30.12 in 10.0 mi Calm Calm - N/A   Clear
8:30 AM 23.0 °F - 17.6 °F 80% 30.12 in 10.0 mi Calm Calm - N/A   Clear
8:50 AM 24.8 °F 20.5 °F 17.6 °F 74% 30.12 in 10.0 mi NNE 3.5 mph - N/A   Clear
9:10 AM 26.6 °F 21.2 °F 17.6 °F 69% 30.13 in 10.0 mi NNE 4.6 mph - N/A   Clear
9:30 AM 28.4 °F 24.6 °F 17.6 °F 64% 30.13 in 10.0 mi NE 3.5 mph - N/A   Clear
9:50 AM 28.4 °F 22.2 °F 17.6 °F 64% 30.13 in 10.0 mi NE 5.8 mph - N/A   Clear
10:10 AM 30.2 °F 25.4 °F 17.6 °F 60% 30.14 in 10.0 mi ENE 4.6 mph - N/A   Clear
10:30 AM 32.0 °F 27.5 °F 17.6 °F 55% 30.14 in 10.0 mi NNE 4.6 mph - N/A   Clear
10:50 AM 32.0 °F - 17.6 °F 55% 30.14 in 10.0 mi Calm Calm - N/A   Clear
11:10 AM 32.0 °F 28.7 °F 17.6 °F 55% 30.14 in 10.0 mi NE 3.5 mph - N/A   Clear
11:30 AM 32.0 °F - 17.6 °F 55% 30.15 in 10.0 mi Calm Calm - N/A   Clear
11:50 AM 33.8 °F - 15.8 °F 48% 30.15 in 10.0 mi Calm Calm - N/A   Clear
12:10 PM 33.8 °F - 14.0 °F 44% 30.15 in 10.0 mi Calm Calm - N/A   Clear
12:30 PM 35.6 °F 30.7 °F 14.0 °F 41% 30.14 in 10.0 mi NNE 5.8 mph - N/A   Clear
12:50 PM 35.6 °F 32.8 °F 14.0 °F 41% 30.13 in 10.0 mi NNE 3.5 mph - N/A   Clear
1:10 PM 35.6 °F 29.9 °F 12.2 °F 38% 30.13 in 10.0 mi NNE 6.9 mph - N/A   Clear
1:30 PM 37.4 °F 33.8 °F 12.2 °F 36% 30.13 in 10.0 mi NE 4.6 mph - N/A   Clear
1:50 PM 37.4 °F - 12.2 °F 36% 30.12 in 10.0 mi Calm Calm - N/A   Clear
2:10 PM 37.4 °F 33.8 °F 10.4 °F 33% 30.12 in 10.0 mi NNE 4.6 mph - N/A   Clear
2:30 PM 37.4 °F 34.9 °F 12.2 °F 36% 30.11 in 10.0 mi NNE 3.5 mph - N/A   Clear
2:50 PM 39.2 °F 35.9 °F 10.4 °F 31% 30.11 in 10.0 mi NNE 4.6 mph - N/A   Clear
3:10 PM 41.0 °F 37.1 °F 10.4 °F 29% 30.10 in 10.0 mi NNE 5.8 mph - N/A   Clear
3:30 PM 39.2 °F 35.9 °F 10.4 °F 31% 30.11 in 10.0 mi NNE 4.6 mph - N/A   Clear
3:50 PM 39.2 °F 35.0 °F 10.4 °F 31% 30.11 in 10.0 mi ENE 5.8 mph - N/A   Clear
4:10 PM 39.2 °F 35.0 °F 10.4 °F 31% 30.11 in 10.0 mi NNE 5.8 mph - N/A   Clear
4:30 PM 37.4 °F 34.9 °F 12.2 °F 36% 30.12 in 10.0 mi NE 3.5 mph - N/A   Clear
4:50 PM 37.4 °F 32.1 °F 14.0 °F 38% 30.11 in 10.0 mi ENE 6.9 mph - N/A   Clear
5:10 PM 35.6 °F 32.8 °F 17.6 °F 48% 30.12 in 10.0 mi East 3.5 mph - N/A   Clear
5:30 PM 35.6 °F 32.8 °F 17.6 °F 48% 30.13 in 10.0 mi ENE 3.5 mph - N/A   Clear
5:50 PM 33.8 °F 30.8 °F 17.6 °F 52% 30.13 in 10.0 mi ENE 3.5 mph - N/A   Clear
6:10 PM 33.8 °F 30.8 °F 17.6 °F 52% 30.13 in 10.0 mi ENE 3.5 mph - N/A   Clear
6:30 PM 33.8 °F - 17.6 °F 52% 30.14 in 10.0 mi Calm Calm - N/A   Clear
6:50 PM 32.0 °F 27.5 °F 17.6 °F 55% 30.14 in 10.0 mi NE 4.6 mph - N/A   Clear
7:10 PM 32.0 °F 28.7 °F 17.6 °F 55% 30.14 in 10.0 mi ENE 3.5 mph - N/A   Clear
7:30 PM 32.0 °F 27.5 °F 17.6 °F 55% 30.13 in 10.0 mi ENE 4.6 mph - N/A   Clear
7:50 PM 32.0 °F 27.5 °F 17.6 °F 55% 30.14 in 10.0 mi ENE 4.6 mph - N/A   Clear
8:10 PM 32.0 °F 28.7 °F 19.4 °F 60% 30.14 in 10.0 mi NE 3.5 mph - N/A   Clear
8:30 PM 32.0 °F 26.4 °F 19.4 °F 60% 30.14 in 10.0 mi ENE 5.8 mph - N/A   Clear
8:50 PM 32.0 °F 27.5 °F 19.4 °F 60% 30.15 in 10.0 mi ENE 4.6 mph - N/A   Clear
9:30 PM 32.0 °F 26.4 °F 19.4 °F 60% 30.15 in 10.0 mi ENE 5.8 mph - N/A   Scattered Clouds
9:50 PM 32.0 °F - 21.2 °F 64% 30.16 in 10.0 mi Calm Calm - N/A   Mostly Cloudy
10:10 PM 32.0 °F 27.5 °F 21.2 °F 64% 30.16 in 10.0 mi East 4.6 mph - N/A   Scattered Clouds
10:30 PM 32.0 °F - 21.2 °F 64% 30.16 in 10.0 mi Calm Calm - N/A   Mostly Cloudy
10:50 PM 32.0 °F - 21.2 °F 64% 30.16 in 10.0 mi Calm Calm - N/A   Overcast
11:10 PM 32.0 °F 28.7 °F 21.2 °F 64% 30.16 in 10.0 mi East 3.5 mph - N/A   Overcast
11:30 PM 32.0 °F - 21.2 °F 64% 30.17 in 10.0 mi Calm Calm - N/A   Overcast
11:50 PM 32.0 °F - 21.2 °F 64% 30.18 in 10.0 mi Calm Calm - N/A   Overcast